Location: Newark
(48.6461°N, 4.3644°W)
Time: 20:57:40
(UTC+00:00)

deb Explorer IX - Visible Passes

Search period start: 24 January 2020 00:00
Search period end: 03 February 2020 00:00
Orbit: 548 x 1101 km, 38.8° (Epoch: 24 January)

Date Brightness Start Highest point End Pass type
(mag) Time Alt. Az. Time Alt. Az. Time Alt. Az.
27 Jan ? 20:26:26 10° SSW 20:26:55 12° S 20:26:55 12° S visible
28 Jan ? 20:04:05 10° SSW 20:06:05 16° S 20:06:05 16° S visible
29 Jan ? 19:41:45 10° SSW 19:45:10 19° SSE 19:45:10 19° SSE visible
29 Jan ? 21:26:23 10° SW 21:26:32 11° SW 21:26:32 11° SW visible
30 Jan ? 19:19:26 10° SSW 19:23:43 19° SSE 19:24:12 19° SE visible
30 Jan ? 21:04:01 10° SW 21:05:34 17° SW 21:05:34 17° SW visible
31 Jan ? 18:57:08 10° SSW 19:01:17 19° SSE 19:03:12 17° SE visible
31 Jan ? 20:41:41 10° SW 20:44:33 24° SSW 20:44:33 24° SSW visible
01 Feb ? 18:34:51 10° SSW 18:38:50 18° SSE 18:42:07 13° ESE visible
01 Feb ? 20:19:20 10° SW 20:23:28 30° SSW 20:23:28 30° SSW visible
02 Feb ? 18:12:35 10° S 18:16:24 18° SSE 18:20:32 10° ESE visible
02 Feb ? 19:57:01 10° SW 20:02:22 33° S 20:02:22 33° S visible
02 Feb ? 21:43:07 10° WSW 21:43:43 13° WSW 21:43:43 13° WSW visible
